Location: Lanoux
(43.1180°N, 1.4255°E)
Time: 16:29:54
(UTC+00:00)

Cosmos 990 Rocket - Pass Details

Date: 13 December 2025
Orbit: 742 x 764 km, 74.0° (Epoch: 16 January)

Event Time Altitude Azimuth Distance (km) Brightness Sun altitude
Rises 17:24:28 0° 207° (SSW) 3,167 8.0 -11.4°
Reaches altitude 10° 17:26:49 10° 211° (SSW) 2,249 7.2 -11.8°
Maximum altitude 17:31:53 64° 292° (WNW) 827 4.4 -12.7°
Drops below altitude 10° 17:37:00 10° 14° (NNE) 2,277 6.1 -13.6°
Enters shadow 17:38:26 - 17° (NNE) 2,834 6.6 -13.8°
